STARLINK-34328, 64220

Orbit data source: Space-Track

STARLINK-34328, 64220 is a payload satellite owned by SpaceX/Seattle (US) in LEO that was launched on Thu, 05 Jun 2025 UTC via an FALCON 9 launch vehicle from the Air Force Western Test Range (AFWTR). Payload-class satellites include a variety of spacecraft equipped with specific instruments for various scientific and technological missions. These include communications satellites like Starlink; space stations such as the ISS; scientific satellites like the Hubble; Earth observation satellites from companies like Planet Labs, Umbra, and HawkEye 360; GPS; miniature CubeSats for education and research; and military/defense satellites.

Loading next visibility...
Identifier
64220, 2025-117T
Orbit
LEO
Last TLE update
9 hours ago
Origin
Manufacturer
SpaceX/Seattle
Mission
Operational spacecraft
Bus & Motor
STARLINK V2MO, Unknown motor
Mass
575 kg wet, ~530 kg dry
Launch date (UTC)
2025-06-05 (2 weeks ago)
Launch vehicle
FALCON 9
Launch site
Air Force Western Test Range (AFWTR)
Object type
Payload
Rocket body
Debris
Shape & HBR
Unknown
Radar Cross Section
Large (>1 m²)

Expand to show TLE details & history

TLE from 9 hours ago
0 STARLINK-34328
1 64220U 25117T   25169.91668981 -.01485262  00000-0 -14164-1 0  9998
2 64220  53.1600 190.4471 0001098  90.3715 193.5990 15.68859008  4011
Epoch: 2025-06-18T22:00Z
TLE epoch observation values (Epoch: 2025-06-18T22:00:01.999Z)
Latitude
-51.12211°
Longitude
-114.47252°
Altitude
380.559 km
Speed
7.681 km/s
True Right ascension
08h 11m 42s
True Declination
-50° 56' 40"
Sunlit
Object was in daylight at epoch
Visualization orbit readout
Latitude
34.39019°
Longitude
100.63696°
Altitude
367.438 km
Speed
7.694 km/s
Apparent Right ascension
01h 39m 16s
Apparent Declination
-2° 27' 18"
Sunlit
Object is in daylight
Visualization observer readout
Local Sidereal Time
17:23:13
Azimuth
68.529° E
Elevation
-27.136°
Doppler factor
1
Orbital elements
Apogee altitude
363.164 km
Perigee altitude
361.684 km
Semi-major axis
6,740.561 km
Eccentricity
0.00011
Inclination
53.16°
RAAN
190.4471°
Arg. of periapsis
90.3715°
True anomaly
Unknown
Mean anomaly
193.599°
Eccentric anomaly
Unknown
Mean motion
3.92192 °/min
Orbital period
91.79 mins
BSTAR
-0.014164
Loading maneuver chart data...
Loading SW <> Apogee altitude chart data...
Loading historical data...
Loading historical data...
Loading historical data...
Loading historical data...
Loading historical data...
Loading historical data...
Loading historical data...

STARLINK-34328 Visibility forecast

Observer location: undefined°, undefined°

Span
Click to sort rows by Start time (UTC) header in descending order
Start Az.
Max El. time (UTC)
Max El. Az.
Max El.
End time (UTC)
End Az.
4 mins2025-06-19 11:04:43.810Z309° NW2025-06-19 11:05:43.810Z304.736° NW42.89°2025-06-19 11:08:43.810Z131.79° SE
4 mins2025-06-20 03:35:43.810Z202.741° SW2025-06-20 03:37:43.810Z107.114° ESE35.659°2025-06-20 03:39:43.810Z62.524° ENE
|